Temp
-9 -9 -8 -8 -8 -8 -8 -7 -7 -7 -6 -6 -6 -6 -6 -5 -6 -6 -6 -6 -6 -6 -6 -6 -6 -6 -6 -6 -7 -7 -7 -7 -7 -7 -7 -7 -7 -7 -7 -6 -6 -6 -6 -6 -6 -6 -6 -5 -5
-9 -9 -8 -8 -8 -8 -8 -8 -7 -7 -6 -6 -6 -6 -6 -6 -6 -6 -6 -6 -7 -7 -7 -7 -7 -7 -7 -7 -7 -8 -8 -8 -8 -7 -7 -7 -7 -7 -7 -7 -7 -7 -7 -6 -6 -6 -6 -6 -6
-10 -9 -9 -8 -8 -8 -8 -8 -7 -7 -7 -6 -6 -6 -6 -6 -7 -7 -7 -7 -7 -8 -8 -8 -8 -8 -8 -8 -8 -8 -8 -8 -8 -8 -8 -7 -7 -7 -7 -7 -7 -7 -7 -7 -6 -6 -6 -6 -6
-10 -10 -9 -8 -8 -8 -8 -8 -7 -7 -7 -7 -7 -7 -7 -7 -7 -7 -7 -8 -8 -8 -8 -8 -8 -9 -9 -9 -9 -9 -9 -8 -8 -8 -8 -8 -7 -7 -7 -7 -7 -6 -6 -6 -6 -6 -6 -6 -6
-10 -10 -9 -8 -8 -8 -8 -8 -7 -7 -7 -7 -7 -7 -7 -7 -8 -8 -8 -8 -8 -8 -8 -9 -8 -9 -9 -9 -9 -9 -9 -9 -8 -8 -8 -8 -7 -7 -7 -7 -6 -6 -6 -6 -6 -6 -6 -6 -6
-10 -10 -9 -8 -8 -8 -8 -8 -8 -7 -7 -7 -8 -8 -8 -8 -8 -8 -8 -8 -8 -8 -8 -8 -8 -8 -8 -8 -8 -9 -8 -8 -8 -8 -8 -8 -7 -7 -6 -6 -6 -7 -7 -7 -7 -7 -7 -7 -7
-10 -10 -10 -9 -8 -8 -8 -8 -8 -8 -8 -8 -8 -8 -8 -8 -8 -8 -8 -8 -8 -8 -8 -8 -8 -8 -8 -8 -8 -8 -8 -8 -8 -8 -8 -7 -7 -7 -7 -7 -7 -7 -6 -6 -6 -6 -6 -6 -6
-9 -9 -9 -9 -8 -8 -8 -8 -8 -8 -8 -8 -8 -8 -8 -8 -8 -8 -8 -8 -8 -8 -8 -8 -9 -9 -9 -9 -9 -8 -8 -8 -7 -7 -7 -7 -7 -7 -7 -7 -6 -6 -6 -6 -6 -6 -6 -6 -6
-9 -9 -9 -9 -8 -9 -9 -8 -8 -8 -8 -8 -8 -8 -8 -8 -8 -8 -8 -8 -8 -8 -8 -9 -9 -8 -9 -8 -8 -7 -7 -7 -7 -7 -7 -7 -7 -7 -6 -6 -6 -6 -6 -6 -6 -6 -6 -6 -6
-9 -9 -9 -9 -8 -9 -9 -8 -8 -8 -8 -8 -8 -8 -8 -8 -8 -8 -8 -8 -8 -8 -8 -8 -8 -8 -8 -7 -7 -7 -7 -7 -7 -7 -7 -7 -6 -6 -6 -6 -6 -6 -6 -6 -6 -6 -6 -6 -5
-9 -9 -9 -9 -8 -9 -9 -8 -8 -8 -8 -8 -8 -8 -8 -8 -8 -8 -8 -8 -8 -8 -8 -8 -8 -8 -7 -7 -7 -7 -7 -7 -7 -7 -6 -6 -6 -6 -6 -6 -6 -5 -6 -5 -5 -5 -5 -5 -5
-9 -9 -9 -9 -8 -8 -9 -8 -7 -8 -8 -8 -8 -8 -8 -8 -8 -8 -8 -8 -8 -8 -8 -8 -8 -8 -7 -7 -7 -7 -7 -7 -6 -6 -6 -6 -6 -6 -6 -5 -5 -5 -5 -5 -5 -5 -5 -5 -5
-9 -9 -9 -9 -8 -8 -8 -8 -7 -8 -8 -8 -8 -8 -8 -8 -8 -8 -8 -8 -8 -8 -8 -7 -7 -7 -7 -7 -7 -7 -7 -7 -6 -6 -6 -6 -6 -6 -5 -5 -5 -5 -5 -5 -5 -5 -5 -5 -5
-9 -9 -9 -9 -8 -8 -8 -8 -8 -7 -8 -8 -8 -8 -8 -8 -8 -8 -8 -8 -8 -8 -7 -7 -7 -7 -7 -7 -7 -7 -6 -6 -6 -6 -6 -5 -5 -5 -5 -5 -5 -5 -5 -5 -5 -5 -5 -5 -5
-9 -9 -9 -8 -8 -8 -8 -8 -8 -7 -7 -8 -8 -8 -8 -8 -8 -7 -8 -8 -7 -7 -7 -7 -7 -7 -7 -7 -7 -6 -6 -6 -6 -6 -6 -5 -5 -5 -5 -5 -5 -5 -5 -5 -5 -5 -5 -5 -5
-9 -9 -9 -8 -8 -8 -8 -8 -7 -8 -8 -8 -8 -8 -8 -8 -7 -7 -7 -7 -7 -7 -7 -7 -7 -7 -7 -7 -7 -6 -6 -6 -6 -6 -6 -5 -5 -5 -5 -5 -5 -5 -5 -5 -4 -4 -4 -4 -5
-9 -9 -9 -8 -8 -8 -8 -7 -7 -7 -7 -7 -7 -7 -7 -7 -7 -7 -7 -7 -7 -7 -7 -7 -7 -7 -7 -7 -7 -6 -6 -6 -6 -6 -6 -6 -5 -5 -5 -5 -5 -5 -5 -5 -5 -5 -4 -4 -5
-8 -8 -8 -8 -8 -8 -7 -7 -7 -7 -7 -7 -7 -7 -7 -7 -6 -6 -7 -7 -7 -7 -7 -7 -7 -7 -6 -6 -6 -6 -6 -6 -6 -6 -6 -6 -6 -6 -6 -5 -5 -5 -5 -5 -5 -5 -5 -5 -5
-8 -8 -8 -8 -8 -8 -7 -7 -7 -7 -7 -6 -7 -7 -7 -6 -6 -6 -7 -7 -7 -7 -7 -7 -6 -6 -6 -6 -6 -6 -6 -6 -6 -6 -6 -6 -6 -6 -6 -5 -5 -6 -6 -6 -6 -6 -6 -6 -5
-8 -8 -8 -8 -8 -7 -7 -7 -7 -7 -7 -7 -6 -6 -6 -6 -6 -6 -7 -7 -6 -6 -7 -7 -7 -6 -6 -6 -6 -6 -6 -6 -6 -6 -6 -6 -6 -6 -6 -6 -6 -5 -5 -6 -6 -6 -6 -6 -6
-8 -8 -8 -8 -8 -7 -7 -7 -7 -7 -6 -6 -6 -6 -6 -6 -6 -6 -6 -6 -6 -6 -6 -6 -6 -6 -6 -6 -6 -6 -6 -6 -6 -6 -6 -6 -6 -6 -6 -6 -6 -6 -6 -5 -5 -5 -5 -5 -5
-8 -8 -8 -8 -7 -7 -7 -7 -6 -6 -6 -5 -5 -5 -5 -6 -6 -6 -6 -6 -6 -6 -6 -6 -6 -6 -6 -6 -6 -6 -6 -6 -6 -6 -6 -6 -6 -6 -6 -6 -6 -6 -6 -5 -5 -5 -5 -5 -5
-8 -7 -7 -7 -7 -7 -7 -6 -6 -6 -5 -5 -5 -5 -5 -6 -6 -6 -6 -6 -6 -6 -6 -6 -6 -6 -6 -6 -6 -6 -6 -6 -6 -6 -6 -6 -6 -6 -6 -6 -6 -6 -5 -6 -6 -5 -5 -5 -5
-8 -8 -7 -7 -7 -7 -7 -6 -6 -5 -6 -5 -5 -5 -5 -6 -6 -5 -5 -6 -6 -5 -6 -6 -6 -6 -6 -6 -6 -6 -6 -6 -6 -6 -6 -6 -6 -6 -6 -6 -6 -6 -6 -6 -6 -6 -6 -6 -6
-8 -8 -7 -7 -7 -7 -6 -6 -6 -6 -5 -5 -5 -5 -5 -5 -6 -5 -5 -5 -6 -6 -6 -6 -6 -6 -6 -6 -6 -6 -6 -6 -6 -6 -6 -6 -7 -7 -6 -6 -6 -6 -6 -6 -6 -6 -6 -6 -7
-8 -8 -8 -7 -7 -7 -6 -5 -6 -6 -5 -5 -5 -5 -5 -5 -5 -5 -5 -5 -5 -5 -5 -5 -6 -6 -6 -6 -6 -6 -6 -6 -6 -6 -6 -6 -6 -6 -6 -6 -6 -6 -6 -6 -6 -6 -7 -7 -7
-8 -8 -8 -8 -7 -6 -6 -6 -6 -6 -5 -5 -5 -5 -5 -5 -6 -5 -5 -5 -5 -5 -5 -5 -5 -5 -5 -5 -6 -6 -6 -6 -6 -6 -6 -6 -6 -6 -6 -6 -6 -6 -6 -6 -6 -6 -7 -7 -7
-9 -8 -8 -8 -7 -7 -6 -6 -6 -6 -5 -5 -5 -5 -5 -6 -6 -6 -5 -5 -5 -5 -5 -5 -5 -5 -5 -5 -6 -6 -6 -6 -6 -6 -6 -6 -6 -6 -6 -6 -6 -6 -7 -7 -7 -7 -7 -7 -7
-8 -8 -8 -8 -7 -7 -6 -6 -7 -6 -5 -5 -5 -5 -5 -5 -5 -6 -6 -6 -5 -5 -5 -5 -5 -5 -6 -6 -6 -6 -6 -6 -6 -6 -6 -6 -7 -7 -7 -7 -7 -7 -7 -7 -7 -7 -7 -7 -7
-9 -9 -9 -8 -8 -8 -7 -6 -7 -6 -5 -5 -5 -6 -6 -6 -5 -5 -5 -5 -5 -5 -5 -6 -5 -5 -6 -6 -6 -6 -6 -6 -6 -6 -6 -6 -6 -7 -7 -7 -7 -7 -7 -7 -7 -7 -7 -8 -8
Height
5877 5879 5881 5883 5887 5886 5886 5889 5889 5890 5889 5889 5888 5887 5887 5886 5886 5888 5885 5884 5883 5882 5882 5881 5879 5877 5876 5875 5875 5875 5874 5874 5874 5874 5874 5873 5873 5873 5873 5874 5875 5876 5876 5876 5876 5875 5875 5876 5876
5875 5877 5879 5881 5883 5884 5886 5887 5888 5889 5888 5888 5887 5886 5886 5886 5885 5885 5885 5884 5883 5883 5882 5881 5880 5879 5878 5877 5877 5877 5876 5876 5876 5876 5876 5876 5875 5875 5875 5875 5875 5875 5876 5876 5876 5876 5877 5876 5876
5872 5874 5877 5879 5881 5883 5885 5886 5888 5888 5887 5887 5886 5886 5886 5886 5885 5885 5885 5884 5884 5884 5884 5883 5882 5881 5880 5880 5879 5879 5878 5878 5878 5878 5877 5877 5878 5878 5878 5878 5877 5877 5877 5877 5877 5877 5876 5877 5878
5869 5872 5875 5877 5880 5881 5883 5885 5887 5887 5886 5886 5885 5886 5885 5886 5886 5886 5886 5885 5885 5886 5885 5884 5883 5882 5882 5881 5881 5880 5880 5880 5880 5880 5879 5879 5879 5879 5880 5880 5880 5880 5880 5880 5880 5879 5879 5879 5879
5866 5868 5871 5874 5878 5880 5882 5884 5885 5886 5886 5885 5884 5885 5885 5886 5886 5886 5887 5887 5887 5887 5886 5885 5884 5884 5884 5883 5883 5882 5882 5882 5881 5881 5881 5881 5881 5881 5882 5882 5882 5883 5883 5883 5882 5882 5881 5880 5879
5863 5865 5868 5872 5876 5879 5881 5882 5884 5885 5885 5884 5884 5885 5885 5885 5886 5888 5888 5888 5888 5888 5888 5887 5886 5886 5886 5886 5885 5885 5884 5884 5884 5883 5883 5883 5883 5883 5884 5884 5884 5885 5884 5884 5884 5883 5882 5882 5881
5859 5862 5865 5869 5873 5876 5879 5881 5882 5884 5883 5883 5884 5885 5885 5886 5887 5888 5888 5889 5889 5889 5889 5888 5888 5888 5888 5888 5887 5887 5887 5886 5886 5886 5886 5885 5886 5886 5886 5887 5886 5886 5886 5885 5885 5885 5884 5883 5883
5857 5860 5862 5866 5869 5874 5878 5879 5881 5883 5882 5882 5883 5885 5886 5886 5887 5888 5889 5890 5891 5891 5891 5890 5890 5890 5889 5889 5889 5888 5888 5888 5888 5888 5888 5889 5888 5889 5888 5889 5888 5888 5888 5887 5887 5887 5886 5885 5884
5854 5858 5859 5863 5867 5872 5875 5877 5880 5882 5881 5882 5883 5884 5886 5887 5888 5889 5891 5892 5892 5893 5892 5892 5892 5891 5890 5890 5890 5890 5890 5890 5891 5891 5891 5891 5891 5890 5890 5890 5890 5890 5890 5889 5888 5888 5887 5886 5884
5851 5854 5855 5860 5864 5868 5872 5875 5878 5880 5880 5881 5882 5884 5886 5888 5889 5890 5892 5893 5894 5894 5894 5893 5893 5892 5892 5892 5892 5893 5893 5893 5893 5893 5892 5892 5892 5892 5892 5892 5892 5892 5891 5890 5890 5889 5888 5886 5885
5850 5851 5853 5857 5862 5866 5870 5872 5876 5878 5879 5881 5882 5884 5886 5888 5890 5892 5893 5894 5894 5893 5893 5894 5893 5893 5893 5894 5895 5895 5895 5895 5895 5895 5894 5894 5894 5894 5894 5894 5893 5892 5892 5891 5891 5890 5888 5887 5885
5848 5849 5851 5854 5859 5863 5867 5869 5873 5877 5878 5880 5881 5883 5886 5888 5890 5891 5892 5893 5894 5894 5894 5895 5895 5895 5895 5895 5895 5896 5896 5895 5896 5896 5896 5896 5895 5895 5894 5894 5893 5893 5893 5892 5891 5889 5888 5887 5885
5845 5848 5848 5850 5855 5860 5864 5867 5871 5874 5876 5879 5881 5883 5886 5888 5890 5891 5891 5892 5893 5894 5894 5895 5895 5895 5896 5896 5896 5896 5897 5897 5897 5897 5897 5897 5896 5895 5895 5895 5894 5894 5892 5891 5889 5888 5887 5886 5884
5846 5847 5849 5852 5855 5859 5862 5866 5869 5872 5875 5878 5881 5883 5885 5887 5889 5891 5892 5893 5894 5895 5895 5896 5896 5896 5896 5896 5897 5897 5898 5899 5899 5898 5898 5897 5897 5897 5897 5896 5894 5893 5891 5890 5889 5888 5887 5885 5883
5846 5848 5849 5852 5855 5858 5860 5864 5866 5871 5874 5878 5880 5882 5885 5887 5889 5891 5893 5894 5895 5895 5896 5896 5897 5897 5897 5897 5898 5899 5899 5900 5899 5898 5898 5898 5898 5897 5896 5895 5893 5892 5891 5889 5888 5886 5885 5884 5881
5847 5848 5849 5851 5854 5856 5860 5862 5866 5870 5873 5877 5879 5882 5884 5886 5889 5890 5892 5893 5894 5895 5896 5896 5897 5897 5897 5898 5899 5899 5899 5899 5899 5899 5899 5899 5898 5897 5896 5895 5893 5891 5890 5888 5886 5885 5883 5881 5880
5847 5848 5849 5851 5854 5857 5859 5862 5865 5869 5872 5876 5878 5881 5884 5886 5888 5890 5891 5893 5894 5895 5895 5896 5897 5897 5898 5899 5899 5899 5899 5899 5899 5899 5899 5898 5897 5896 5895 5894 5892 5890 5888 5886 5884 5883 5881 5879 5877
5850 5851 5852 5854 5856 5857 5860 5863 5866 5869 5872 5875 5877 5880 5883 5886 5887 5889 5891 5892 5893 5894 5894 5895 5895 5896 5897 5898 5898 5899 5899 5899 5899 5899 5899 5898 5897 5896 5895 5893 5892 5890 5888 5885 5882 5880 5878 5876 5874
5853 5854 5855 5856 5858 5859 5861 5863 5865 5868 5871 5875 5877 5880 5883 5885 5887 5889 5890 5891 5892 5892 5893 5893 5894 5895 5896 5897 5897 5898 5899 5900 5899 5899 5899 5899 5898 5896 5895 5893 5892 5890 5888 5885 5881 5879 5877 5874 5871
5854 5855 5857 5858 5858 5860 5861 5863 5865 5868 5871 5874 5876 5879 5882 5884 5886 5888 5889 5889 5890 5891 5891 5892 5893 5894 5895 5896 5897 5898 5899 5899 5900 5900 5900 5899 5898 5896 5895 5893 5891 5889 5887 5884 5882 5879 5876 5874 5871
5854 5855 5856 5858 5858 5859 5861 5862 5865 5867 5870 5873 5877 5879 5882 5884 5885 5887 5888 5888 5889 5890 5891 5892 5893 5894 5895 5896 5897 5898 5899 5899 5900 5900 5899 5898 5896 5895 5893 5892 5890 5888 5885 5883 5880 5878 5875 5872 5870
5853 5854 5855 5856 5857 5858 5859 5862 5863 5866 5869 5872 5875 5879 5881 5883 5884 5886 5888 5888 5888 5889 5890 5892 5893 5894 5896 5897 5897 5898 5898 5898 5899 5898 5898 5896 5895 5894 5892 5890 5888 5886 5884 5882 5879 5876 5873 5870 5867
5851 5851 5852 5853 5854 5856 5857 5859 5863 5865 5868 5871 5874 5877 5880 5882 5883 5885 5886 5887 5888 5889 5891 5893 5894 5895 5895 5896 5896 5897 5897 5898 5898 5897 5896 5895 5894 5893 5891 5889 5887 5885 5882 5880 5877 5874 5871 5867 5864
5847 5847 5848 5849 5851 5853 5853 5856 5860 5864 5866 5869 5872 5875 5877 5879 5881 5883 5885 5887 5888 5889 5891 5892 5893 5894 5894 5895 5895 5895 5896 5896 5896 5895 5894 5893 5892 5891 5888 5886 5884 5882 5880 5877 5874 5871 5867 5863 5860
5843 5843 5844 5846 5847 5849 5850 5854 5858 5859 5862 5866 5869 5872 5874 5876 5878 5881 5883 5885 5886 5888 5889 5890 5891 5891 5892 5893 5893 5893 5894 5894 5894 5893 5891 5890 5889 5887 5885 5883 5881 5879 5876 5873 5870 5867 5863 5859 5854
5839 5840 5841 5841 5843 5845 5846 5851 5853 5856 5858 5861 5865 5868 5871 5873 5875 5878 5879 5881 5883 5884 5886 5887 5888 5889 5890 5890 5891 5891 5891 5891 5891 5889 5888 5886 5885 5883 5881 5879 5877 5875 5872 5869 5865 5861 5857 5853 5848
5836 5835 5836 5837 5838 5839 5843 5848 5849 5850 5854 5857 5860 5863 5866 5869 5871 5874 5875 5877 5879 5881 5882 5883 5884 5885 5886 5886 5887 5887 5887 5887 5886 5885 5883 5882 5880 5878 5876 5875 5872 5870 5867 5864 5860 5856 5851 5847 5842
5829 5830 5831 5831 5833 5834 5838 5842 5844 5846 5849 5853 5856 5858 5860 5862 5865 5868 5871 5872 5874 5875 5876 5878 5879 5880 5881 5882 5882 5882 5882 5881 5881 5880 5878 5877 5876 5874 5872 5870 5867 5865 5861 5858 5854 5850 5845 5840 5835
5823 5824 5825 5825 5827 5828 5832 5837 5838 5840 5844 5847 5850 5853 5855 5857 5858 5860 5863 5865 5867 5868 5871 5872 5874 5874 5875 5876 5876 5876 5875 5875 5875 5874 5873 5871 5870 5868 5866 5864 5861 5859 5856 5852 5848 5844 5839 5834 5829
5817 5819 5819 5818 5822 5821 5824 5831 5832 5834 5837 5841 5844 5846 5848 5851 5852 5853 5855 5857 5859 5862 5864 5865 5866 5868 5868 5868 5869 5869 5869 5869 5869 5867 5866 5865 5864 5861 5859 5857 5855 5852 5849 5845 5841 5836 5832 5826 5821
Wind_Speed
18 18 17 15 15 15 15 12 10 9 8 5 5 5 6 7 5 3 4 2 1 0 1 0 2 3 4 5 7 9 11 13 14 15 16 15 15 16 16 15 13 12 11 10 9 9 9 8 8
22 20 17 16 16 16 15 12 9 9 8 6 4 5 5 5 4 4 3 2 3 4 5 6 8 9 10 10 12 13 14 15 16 17 18 19 19 19 19 19 19 18 17 15 13 12 10 11 11
24 23 20 17 16 16 16 12 10 10 7 6 5 5 5 4 5 3 4 7 9 10 10 10 11 11 12 12 13 14 15 16 16 16 17 17 18 18 18 19 21 22 22 22 22 22 21 20 18
23 24 23 22 18 16 16 12 11 9 7 6 6 6 6 6 6 8 10 11 11 10 10 11 12 13 13 13 13 13 14 14 15 16 17 19 20 22 23 25 26 26 26 26 27 26 25 25 24
27 24 25 26 19 17 16 12 11 8 6 5 7 7 7 8 11 12 11 11 11 11 12 13 14 14 14 14 15 16 16 17 18 19 20 20 22 23 25 25 24 25 25 26 27 27 28 28 27
32 27 25 26 19 18 15 11 11 6 6 7 9 9 10 11 13 11 11 11 12 11 11 13 13 13 14 14 15 16 16 16 17 18 19 19 20 22 22 22 23 24 26 29 30 30 30 31 30
32 30 27 25 23 18 14 11 10 6 6 8 11 12 15 15 12 10 11 12 12 11 11 12 13 13 13 14 15 16 16 16 16 17 18 18 19 20 20 23 25 27 29 30 30 30 30 29 29
30 32 31 28 27 21 17 14 12 8 7 11 12 14 18 15 13 12 12 11 11 11 11 11 10 10 11 11 12 13 14 14 15 16 16 17 18 19 22 26 27 27 28 29 29 28 28 27 28
26 31 35 32 32 26 21 19 14 9 9 13 14 17 18 16 16 15 13 12 12 12 11 10 10 9 9 10 11 11 11 13 15 17 19 20 21 23 25 25 26 27 26 26 25 25 25 25 26
23 27 32 32 28 28 23 22 15 10 12 15 16 19 18 17 17 16 15 14 13 12 12 11 10 9 9 8 8 9 10 12 14 13 18 21 23 23 23 23 23 23 22 21 21 22 22 22 24
20 24 28 28 28 27 21 24 19 14 15 16 19 20 19 18 17 18 16 14 12 11 9 9 8 7 7 8 8 8 12 14 17 19 21 21 20 19 19 19 19 19 18 18 18 19 19 21 22
15 18 19 19 24 23 24 27 21 17 18 19 21 21 20 19 18 15 13 12 11 10 9 8 6 6 6 7 10 13 14 16 18 18 18 17 16 17 17 17 17 16 15 15 17 18 20 21 22
9 11 14 20 23 24 26 24 20 20 21 22 23 23 21 19 17 15 12 10 8 7 5 4 6 8 10 11 12 13 14 14 15 15 14 13 14 14 14 13 12 13 14 15 16 18 20 20 22
11 11 12 15 19 21 21 22 21 24 23 24 24 23 21 19 16 14 14 12 10 8 7 8 9 10 10 11 11 12 12 13 12 10 10 11 11 10 9 10 11 13 14 16 17 18 18 20 21
9 12 14 16 18 19 18 22 25 24 23 25 25 23 20 18 16 15 13 12 11 10 12 12 11 9 9 10 10 10 10 9 8 8 8 8 9 10 11 12 13 13 14 15 16 17 18 18 20
7 8 10 13 17 19 21 23 24 25 25 26 24 22 20 18 16 13 11 11 13 14 14 13 11 10 9 9 9 8 7 6 6 6 8 9 9 10 10 11 13 15 16 16 17 17 18 20 21
6 8 11 15 19 19 21 24 25 25 26 26 24 22 20 17 14 12 12 15 15 16 14 13 12 10 10 9 8 7 7 9 11 11 10 12 13 15 16 18 19 19 20 19 18 17 18 19 20
9 10 11 15 19 20 23 23 23 25 27 26 24 21 18 16 14 13 16 17 17 16 15 12 11 10 9 10 11 13 14 13 13 14 15 16 15 16 17 19 20 20 22 24 20 16 16 16 16
9 10 10 12 14 17 19 21 23 25 25 22 21 19 17 14 13 16 17 17 14 13 13 13 12 11 12 15 18 17 15 15 16 16 14 13 14 14 14 16 19 22 23 27 27 22 17 15 17
8 7 9 10 13 15 17 20 22 23 23 22 19 14 14 14 16 18 19 16 13 12 13 14 14 15 18 19 17 17 15 15 14 12 11 10 11 12 13 15 17 20 22 24 27 27 24 22 22
8 9 10 11 12 14 17 20 22 24 23 19 16 16 13 15 18 17 16 15 13 13 14 15 17 20 18 17 18 14 13 12 9 8 8 9 10 12 14 16 18 20 22 23 25 27 27 27 28
11 12 13 13 14 15 18 20 23 22 19 16 11 13 17 19 20 18 16 16 15 15 16 18 19 17 16 15 12 9 8 6 5 5 6 8 10 11 14 17 20 21 22 23 23 25 26 26 29
15 16 16 17 16 16 17 20 19 18 16 14 13 14 17 20 22 20 19 18 16 16 15 16 16 15 13 11 9 7 4 3 1 3 6 8 9 11 12 16 18 21 22 23 24 25 26 29 30
16 18 17 17 18 17 19 18 18 15 18 15 14 17 19 21 22 22 22 19 17 16 16 15 14 13 11 8 6 4 3 2 3 7 9 12 13 14 15 17 19 21 23 25 26 28 29 30 31
19 19 19 19 19 18 20 19 17 20 16 14 14 17 22 24 23 22 22 22 21 19 18 16 15 13 10 8 8 7 7 7 9 12 14 16 18 19 19 19 20 23 25 27 29 30 31 32 34
22 20 21 21 20 20 22 19 21 19 18 17 17 19 20 23 23 22 23 24 22 20 19 17 16 14 13 13 13 12 12 13 15 17 18 20 21 21 21 22 22 25 28 29 31 33 35 37 38
21 23 24 23 23 25 23 23 20 20 19 19 20 19 21 22 22 23 24 23 23 22 21 21 19 17 17 17 17 18 17 18 19 20 22 23 23 23 23 23 24 26 29 31 32 34 37 40 42
23 26 26 26 26 26 25 25 22 23 22 22 22 23 25 26 25 25 24 24 24 23 23 21 20 20 20 18 19 20 20 21 21 23 24 25 25 24 24 25 26 27 30 31 33 36 38 41 44
26 25 28 29 28 27 26 26 26 26 25 25 24 25 27 28 28 29 28 28 28 27 24 22 22 22 22 23 23 23 24 23 23 25 25 26 26 25 25 26 28 29 31 33 34 37 39 42 45
27 27 28 31 30 32 31 29 27 28 29 29 29 29 29 30 32 34 35 34 30 27 26 25 24 24 26 27 25 25 25 24 24 25 25 26 27 27 27 28 30 31 33 35 37 39 41 45 48
Wind_Direction
229 226 223 219 215 211 212 217 217 215 218 225 255 275 277 275 267 264 237 237 264 8 338 87 105 96 81 77 78 83 83 83 83 83 84 83 81 80 83 88 91 88 82 72 61 53 42 31 24
230 227 221 218 214 210 207 206 221 217 223 225 235 252 251 256 220 200 225 161 122 116 115 109 101 98 94 92 91 91 91 91 90 91 90 90 86 83 81 80 79 79 78 77 74 70 64 59 55
223 227 221 219 213 209 210 202 219 220 230 227 220 223 217 195 180 164 149 127 117 115 115 112 108 106 106 105 101 100 98 96 95 94 91 90 89 87 84 81 78 75 72 71 70 69 69 69 67
219 221 221 219 213 203 212 204 215 226 230 228 187 200 188 175 149 141 132 125 119 118 114 110 106 100 97 96 98 101 100 100 97 93 90 90 90 89 87 85 82 79 78 76 74 72 70 68 66
213 219 218 215 210 200 210 207 215 228 241 219 169 169 172 169 145 138 133 124 122 118 111 104 100 95 94 94 94 93 93 93 94 95 95 93 92 92 90 88 88 88 89 86 83 81 78 73 70
210 216 215 206 202 197 205 206 226 230 240 195 167 172 168 164 149 147 139 132 130 123 115 109 103 100 100 99 98 97 96 96 96 97 97 96 93 93 95 99 99 99 93 86 80 74 70 66 64
209 215 217 203 188 195 201 210 236 243 233 191 173 175 167 164 154 155 145 142 137 131 124 115 110 108 109 108 107 108 107 106 103 98 95 96 100 105 106 107 100 89 79 72 67 64 60 58 56
208 214 220 210 208 210 212 223 226 238 224 191 178 172 167 164 156 156 151 148 143 136 127 122 121 119 113 107 100 96 95 96 97 101 106 115 117 116 104 90 81 74 70 65 61 58 54 50 45
210 216 224 222 216 223 221 224 218 232 212 190 180 172 170 166 156 157 159 156 151 145 138 130 128 119 106 96 93 94 97 109 119 126 123 112 101 89 82 77 72 66 62 58 55 51 47 42 37
211 218 226 229 223 224 220 225 217 225 212 189 178 172 170 163 159 160 163 161 155 147 139 133 126 115 106 104 106 116 133 137 126 111 98 88 81 77 71 65 61 56 51 48 47 43 38 33 29
214 220 229 232 228 227 217 222 217 215 208 186 177 173 169 167 165 165 164 153 145 134 126 124 116 110 117 128 141 145 133 116 104 95 86 78 73 68 62 57 52 45 42 40 36 31 27 24 18
219 224 230 229 222 215 206 216 214 213 203 186 177 171 168 168 166 164 154 144 141 138 136 131 136 141 152 152 142 125 111 99 91 85 78 72 65 59 53 46 40 36 34 31 28 25 21 15 10
197 202 201 186 190 198 204 209 210 208 194 185 177 172 170 167 166 158 153 151 147 142 147 161 157 162 157 141 120 111 102 95 87 79 74 67 56 47 42 38 32 29 24 22 18 12 9 2 360
195 197 182 178 188 200 203 203 197 198 190 181 177 173 168 166 163 161 161 164 165 170 183 184 172 161 149 131 121 111 102 96 89 80 65 51 42 35 33 25 19 16 14 12 7 6 2 1 357
187 192 195 192 197 202 205 186 192 186 188 179 177 172 167 165 168 165 167 172 175 188 197 192 183 171 150 138 126 114 107 100 88 71 56 46 36 35 35 27 21 16 10 5 359 357 354 354 356
177 188 201 196 183 181 182 187 180 186 183 182 177 171 170 172 171 171 175 187 198 202 198 194 187 178 163 151 138 125 111 97 85 74 72 71 61 49 39 31 25 18 10 1 352 343 337 339 343
174 173 177 178 173 182 184 179 183 185 183 182 176 174 173 174 174 182 197 206 207 202 198 192 186 183 175 163 145 130 120 113 104 95 84 72 66 62 56 48 39 29 18 8 358 355 347 344 342
129 140 155 166 171 175 179 184 185 186 183 180 175 173 174 179 186 203 208 212 209 202 196 190 181 180 167 156 144 135 122 114 104 95 87 80 70 63 57 48 40 32 27 22 13 1 357 351 352
140 146 158 167 176 183 188 189 189 187 182 173 174 175 181 191 205 214 213 213 205 196 186 181 179 171 161 150 140 133 126 117 107 99 87 78 67 61 49 42 37 31 27 22 18 15 9 1 353
166 174 184 190 192 198 198 194 194 186 183 181 179 185 198 203 212 215 213 204 194 185 178 175 167 157 148 143 141 135 127 116 110 99 83 60 51 42 36 28 22 13 8 12 15 13 9 3 353
208 207 223 220 215 211 208 203 192 191 185 180 181 194 209 219 224 217 204 194 184 177 168 161 154 150 147 147 140 133 123 113 107 82 58 37 32 26 21 15 12 9 6 360 357 1 5 4 355
237 237 235 237 227 217 217 205 197 192 183 178 200 216 219 224 224 210 196 187 172 159 156 156 155 152 147 147 145 138 129 107 91 53 24 16 10 7 6 4 3 359 356 355 353 350 346 347 350
249 248 247 244 236 223 222 209 197 191 183 188 209 216 232 231 222 208 196 185 175 168 170 170 168 170 169 165 159 150 133 123 52 360 344 338 339 347 350 353 351 348 347 347 346 345 343 343 338
252 256 251 247 237 222 221 207 199 182 190 207 224 234 238 236 223 211 205 203 199 190 191 192 191 189 187 184 185 191 217 265 311 316 320 321 322 323 332 334 335 334 333 336 337 337 337 336 335
252 253 254 249 239 222 219 200 193 192 200 210 229 240 241 235 229 219 213 210 208 208 208 208 210 210 212 221 231 240 263 290 302 307 311 314 315 318 318 318 321 323 325 328 328 329 329 330 332
254 253 255 253 238 224 217 190 197 192 198 212 233 234 239 243 236 225 220 218 216 216 216 218 221 225 231 242 254 267 278 288 294 300 306 309 310 309 308 310 315 317 319 320 322 323 326 328 327
257 253 249 252 243 226 217 200 198 202 212 219 224 230 231 227 234 237 230 225 222 221 221 225 228 233 242 251 261 268 276 283 290 297 301 302 302 303 304 305 307 312 313 316 319 320 322 324 326
262 254 252 252 248 233 219 206 208 205 212 214 219 220 219 217 222 233 239 234 227 226 227 230 235 237 244 253 257 265 271 278 286 291 295 295 298 299 298 302 303 307 310 314 318 319 319 321 324
258 259 257 254 253 249 230 212 214 210 214 217 220 226 230 225 224 225 230 232 230 230 233 233 238 243 245 246 253 260 267 274 282 285 289 292 295 296 295 300 303 308 309 313 314 316 317 318 319
267 263 260 257 256 251 245 206 220 215 214 220 219 220 223 229 231 230 235 235 233 232 235 238 243 248 248 249 253 258 264 271 275 280 284 287 292 292 295 299 302 305 307 309 311 313 315 316 317